Location: Waco, TX
(31.5480°N, 97.1670°W)
Time: 15:30:56
(UTC-05:00)

ISS - Pass Details

Date: 12 September 2019
Orbit: 411 x 421 km, 51.6° (Epoch: 17 September)

Event Time Altitude Azimuth Distance (km) Brightness Sun altitude
Rises 00:32:03 0° 265° (W) 2,332 - -52.0°
Reaches altitude 10° 00:34:52 10° 291° (WNW) 1,474 - -52.2°
Maximum altitude 00:36:45 14° 326° (NNW) 1,243 - -52.4°
Drops below altitude 10° 00:38:39 10° 1° (N) 1,478 - -52.5°
Sets 00:41:29 0° 28° (NNE) 2,344 - -52.7°
